Middleton, WI

8:06 AM CDT on June 25, 2017 (GMT -0500)
Middleton

Weather History for KC29 - January, 2014

Change the Weather History Date:

Wednesday, January 22, 2014

  Actual Average (KMSN) Record (KMSN)
Temperature  
Mean Temperature 6 °F -  
Max Temperature 14 °F 31 °F 53 °F (1964)
Min Temperature -1 °F 13 °F -26 °F (1936)
Degree Days  
Heating Degree Days 58    
Moisture  
Dew Point -5 °F    
Average Humidity 64    
Maximum Humidity 72    
Minimum Humidity 54    
Precipitation  
Precipitation 0.00 in - - ()
Sea Level Pressure  
Sea Level Pressure 29.99 in    
Wind  
Wind Speed 9 mph (West)    
Max Wind Speed 22 mph    
Max Gust Speed 29 mph    
Visibility 7 miles    
Events      
Averages and records for this station are not official NWS values.
T = Trace of Precipitation, MM = Missing Value Source: NWS Daily Summary

Daily Weather History Graph

Daily Weather History Graph

Search for Another Location

Airport or City:

Trip Planner

Search our weather history database for the weather conditions in past years. The results will help you decide how hot, cold, wet, or windy it might be!

Date:

Astronomy

Jan. 22, 2014 Rise Set
Actual Time 7:22 AM CST 4:57 PM CST
Civil Twilight 6:51 AM CST 5:28 PM CST
Nautical Twilight 6:16 AM CST 6:03 PM CST
Astronomical Twilight 5:43 AM CST 6:36 PM CST
Moon 11:41 PM CST (1/22) 10:12 AM CST (1/22)
Length of Visible Light 10h 36m
Length of Day
9h 34m
Waning Gibbous, 65% of the Moon is Illuminated
Jan 22
Waning Gibbous
Jan 23
Last Quarter
Jan 30
New
Feb 6
First Quarter
Feb 14
Full

Hourly Weather History & Observations

Time (CST) Temp. Windchill Dew Point Humidity Pressure Visibility Wind Dir Wind Speed Gust Speed Precip Events Conditions
12:15 AM 2.8 °F -6.6 °F -9.0 °F 58% 30.10 in 10.0 mi SSW 4.6 mph - N/A   Mostly Cloudy
12:35 AM 2.3 °F -7.2 °F -8.9 °F 60% 30.08 in 10.0 mi SSE 4.6 mph - N/A   Overcast
12:55 AM 2.1 °F -9.0 °F -8.7 °F 61% 30.06 in 10.0 mi South 5.8 mph - N/A   Mostly Cloudy
1:15 AM 1.8 °F - -8.7 °F 62% 30.06 in 10.0 mi Calm Calm - N/A   Mostly Cloudy
1:35 AM 1.6 °F - -8.5 °F 63% 30.05 in 10.0 mi Calm Calm - N/A   Overcast
1:55 AM 2.3 °F -8.8 °F -8.1 °F 62% 30.04 in 10.0 mi SSW 5.8 mph - N/A   Overcast
2:15 AM 2.3 °F -7.2 °F -8.3 °F 61% 30.04 in 10.0 mi SSW 4.6 mph - N/A   Overcast
2:35 AM 2.7 °F -4.8 °F -7.8 °F 62% 30.02 in 10.0 mi SSW 3.5 mph - N/A   Overcast
2:55 AM 2.8 °F -4.6 °F -7.2 °F 63% 30.02 in 10.0 mi South 3.5 mph - N/A   Overcast
3:15 AM 3.0 °F -6.4 °F -6.7 °F 64% 30.01 in 7.0 mi SSW 4.6 mph - N/A   Overcast
3:35 AM 3.2 °F -10.3 °F -6.0 °F 66% 29.99 in 10.0 mi South 8.1 mph - N/A   Overcast
3:55 AM 3.2 °F -9.1 °F -5.6 °F 67% 29.98 in 10.0 mi South 6.9 mph - N/A   Overcast
4:15 AM 3.7 °F -9.6 °F -5.1 °F 67% 29.97 in 10.0 mi South 8.1 mph - N/A   Overcast
4:35 AM 3.9 °F -8.2 °F -5.1 °F 66% 29.96 in 10.0 mi SSW 6.9 mph - N/A   Overcast
4:55 AM 4.1 °F -8.0 °F -4.9 °F 66% 29.96 in 10.0 mi SSW 6.9 mph - N/A   Overcast
5:15 AM 4.5 °F -8.7 °F -4.4 °F 67% 29.94 in 10.0 mi SSW 8.1 mph - N/A   Overcast
5:35 AM 4.6 °F -6.0 °F -4.2 °F 67% 29.94 in 7.0 mi SW 5.8 mph - N/A   Overcast
5:55 AM 5.0 °F -4.1 °F -3.3 °F 69% 29.94 in 4.0 mi SW 4.6 mph - N/A   Overcast
6:15 AM 5.4 °F -7.6 °F -2.6 °F 70% 29.94 in 4.0 mi SW 8.1 mph - N/A   Overcast
6:35 AM 5.5 °F -6.3 °F -1.7 °F 72% 29.94 in 3.0 mi SW 6.9 mph - N/A   Overcast
6:55 AM 5.7 °F -6.1 °F -1.7 °F 72% 29.94 in 7.0 mi SW 6.9 mph - N/A   Overcast
7:15 AM 5.7 °F -4.8 °F -1.5 °F 72% 29.94 in 5.0 mi SW 5.8 mph - N/A   Overcast
7:35 AM 5.9 °F -7.0 °F -1.3 °F 72% 29.92 in 5.0 mi SW 8.1 mph - N/A   Overcast
7:55 AM 5.9 °F -7.0 °F -1.3 °F 72% 29.92 in 5.0 mi SW 8.1 mph - N/A   Overcast
8:15 AM 6.4 °F -7.3 °F -0.9 °F 72% 29.91 in 10.0 mi SW 9.2 mph - N/A   Overcast
8:35 AM 6.6 °F -8.0 °F -0.6 °F 72% 29.91 in 10.0 mi SW 10.4 mph - N/A   Overcast
8:55 AM 7.5 °F -5.0 °F -0.2 °F 71% 29.90 in 10.0 mi WSW 8.1 mph - N/A   Overcast
9:15 AM 8.1 °F -4.3 °F 0.3 °F 71% 29.90 in 10.0 mi SW 8.1 mph - N/A   Overcast
9:35 AM 9.1 °F -4.9 °F 1.0 °F 70% 29.89 in 7.0 mi WSW 10.4 mph - N/A   Overcast
9:55 AM 9.9 °F -4.0 °F 1.4 °F 69% 29.90 in 5.0 mi WSW 10.4 mph - N/A   Overcast
10:15 AM 10.4 °F -1.5 °F 2.1 °F 69% 29.90 in 5.0 mi WSW 8.1 mph - N/A   Overcast
10:35 AM 11.3 °F -2.2 °F 2.8 °F 69% 29.90 in 2.5 mi West 10.4 mph - N/A   Overcast
10:55 AM 11.7 °F -0.9 °F 3.7 °F 71% 29.89 in 1.5 mi West 9.2 mph - N/A   Overcast
11:15 AM 12.0 °F -2.7 °F 3.0 °F 67% 29.88 in 3.0 mi WNW 12.7 mph - N/A   Overcast
11:35 AM 12.0 °F -2.0 °F 3.4 °F 68% 29.87 in 2.0 mi West 11.5 mph 16.1 mph N/A   Overcast
11:55 AM 12.0 °F -1.3 °F 4.3 °F 71% 29.87 in 2.0 mi WNW 10.4 mph - N/A   Overcast
12:15 PM 12.2 °F -1.8 °F 3.9 °F 69% 29.86 in 3.0 mi WNW 11.5 mph - N/A   Overcast
12:35 PM 12.7 °F 0.4 °F 3.2 °F 66% 29.86 in 5.0 mi WNW 9.2 mph 18.4 mph N/A   Overcast
12:55 PM 12.7 °F -1.8 °F 3.0 °F 65% 29.86 in 5.0 mi WNW 12.7 mph - N/A   Overcast
1:15 PM 14.0 °F 1.2 °F 4.1 °F 65% 29.86 in 4.0 mi WNW 10.4 mph - N/A   Overcast
1:35 PM 12.7 °F -4.1 °F 3.0 °F 65% 29.86 in 2.0 mi NW 17.3 mph 23.0 mph N/A   Overcast
1:55 PM 11.3 °F -6.0 °F 3.0 °F 69% 29.87 in 0.8 mi NW 17.3 mph 24.2 mph N/A   Overcast
2:15 PM 10.4 °F -6.0 °F 0.7 °F 65% 29.88 in 4.0 mi NW 15.0 mph - N/A   Mostly Cloudy
2:35 PM 11.3 °F -7.4 °F -0.9 °F 58% 29.89 in 1.8 mi NW 20.7 mph 24.2 mph N/A   Mostly Cloudy
2:55 PM 10.4 °F -7.7 °F -2.0 °F 57% 29.90 in 3.0 mi NW 18.4 mph 26.5 mph N/A   Scattered Clouds
3:15 PM 9.0 °F -8.5 °F -1.8 °F 62% 29.92 in 3.0 mi NW 16.1 mph 23.0 mph N/A   Mostly Cloudy
3:35 PM 9.1 °F -9.3 °F -1.5 °F 62% 29.94 in 3.0 mi NW 18.4 mph 23.0 mph N/A   Mostly Cloudy
3:55 PM 8.1 °F -10.7 °F -5.4 °F 54% 29.95 in 7.0 mi NW 18.4 mph 21.9 mph N/A   Mostly Cloudy
4:15 PM 7.5 °F -9.1 °F -4.5 °F 58% 29.97 in 10.0 mi NW 13.8 mph 20.7 mph N/A   Mostly Cloudy
4:35 PM 6.8 °F -11.3 °F -4.7 °F 59% 29.98 in 7.0 mi NW 16.1 mph - N/A   Mostly Cloudy
4:55 PM 6.4 °F -12.3 °F -4.5 °F 61% 29.99 in 4.0 mi NW 17.3 mph 23.0 mph N/A   Mostly Cloudy
5:15 PM 5.7 °F -10.7 °F -3.8 °F 65% 30.00 in 10.0 mi NNW 12.7 mph - N/A   Mostly Cloudy
5:35 PM 5.9 °F -11.8 °F -2.0 °F 70% 30.02 in 5.0 mi NNW 15.0 mph 21.9 mph N/A   Overcast
5:55 PM 4.8 °F -14.9 °F -4.0 °F 67% 30.03 in 5.0 mi NNW 18.4 mph 23.0 mph N/A   Mostly Cloudy
6:15 PM 3.9 °F -15.6 °F -4.4 °F 69% 30.05 in 3.0 mi NW 17.3 mph 23.0 mph N/A   Mostly Cloudy
6:35 PM 3.2 °F -17.6 °F -6.9 °F 63% 30.07 in 5.0 mi NW 19.6 mph 26.5 mph N/A   Mostly Cloudy
6:55 PM 2.1 °F -20.0 °F -9.2 °F 59% 30.08 in 5.0 mi NNW 21.9 mph 26.5 mph N/A   Scattered Clouds
7:15 PM 1.6 °F -18.6 °F -11.0 °F 56% 30.10 in 7.0 mi NNW 17.3 mph 23.0 mph N/A   Clear
7:35 PM 1.2 °F -17.1 °F -11.2 °F 56% 30.12 in 10.0 mi NW 13.8 mph 19.6 mph N/A   Clear
7:55 PM 0.9 °F -18.3 °F -11.7 °F 56% 30.12 in 10.0 mi NW 15.0 mph 21.9 mph N/A   Clear
8:15 PM 1.0 °F -18.7 °F -11.6 °F 56% 30.13 in 10.0 mi NW 16.1 mph 21.9 mph N/A   Mostly Cloudy
8:35 PM 0.5 °F -18.7 °F -10.8 °F 59% 30.14 in 7.0 mi NW 15.0 mph 20.7 mph N/A   Overcast
8:55 PM 0.1 °F -18.5 °F -12.3 °F 56% 30.14 in 10.0 mi NW 13.8 mph 21.9 mph N/A   Mostly Cloudy
9:15 PM -0.2 °F -20.3 °F -13.2 °F 54% 30.15 in 10.0 mi WNW 16.1 mph 23.0 mph N/A   Scattered Clouds
9:35 PM -0.6 °F -20.8 °F -13.0 °F 56% 30.15 in 10.0 mi NW 16.1 mph 24.2 mph N/A   Clear
9:55 PM -0.9 °F -21.2 °F -13.5 °F 55% 30.16 in 10.0 mi NW 16.1 mph 23.0 mph N/A   Clear
10:15 PM -0.9 °F -21.9 °F -13.5 °F 55% 30.17 in 10.0 mi NW 17.3 mph 24.2 mph N/A   Clear
10:35 PM -0.9 °F -21.2 °F -13.2 °F 56% 30.17 in 10.0 mi NW 16.1 mph 24.2 mph N/A   Clear
10:55 PM -1.3 °F -21.7 °F -13.2 °F 57% 30.17 in 10.0 mi NW 16.1 mph 23.0 mph N/A   Clear
11:15 PM -1.3 °F -23.5 °F -13.0 °F 58% 30.18 in 7.0 mi NW 19.6 mph 25.3 mph N/A   Clear
11:35 PM -1.3 °F -23.5 °F -12.1 °F 60% 30.18 in 3.0 mi NW 19.6 mph 28.8 mph N/A   Clear
11:55 PM -1.3 °F -23.5 °F -12.6 °F 59% 30.20 in 5.0 mi NW 19.6 mph 28.8 mph N/A   Clear